GEFSSE_con_prob3kmehi_168.txt.gz
EHI
1 4 13 24 30 33 32 27 21 20 21 21 16 12 10 10 12 11 11 11 9 7 6 9 11 10 9 8 6 5 5 3 2 1 0 0 0 0 0 0 0 0 0
1 4 14 24 30 32 30 27 23 21 21 20 16 13 12 11 11 12 13 12 10 8 8 9 11 11 10 9 7 6 6 4 2 1 0 0 0 0 0 0 0 0 0
1 4 11 21 27 27 27 24 20 18 19 18 15 14 13 12 11 13 15 14 12 11 10 11 12 12 13 12 10 8 6 4 1 0 0 0 0 0 0 0 0 0 0
3 3 8 17 21 22 22 20 16 15 16 15 13 12 12 11 12 13 15 15 15 14 13 14 15 15 16 16 13 8 5 2 0 0 0 0 0 0 0 0 0 0 0
3 3 7 14 18 19 19 18 15 13 12 12 11 11 11 11 12 14 15 15 15 15 14 15 17 18 19 19 14 9 5 2 0 0 0 0 0 0 0 0 0 0 0
2 2 6 12 15 18 18 17 14 11 8 9 10 11 11 12 12 14 14 14 12 11 10 12 16 19 19 17 13 9 6 3 0 0 0 0 0 0 0 0 0 0 0
1 1 4 9 12 14 16 15 13 9 6 7 9 10 10 10 10 11 12 12 9 5 4 7 12 17 17 13 10 9 7 2 0 0 0 0 0 0 0 0 0 0 0
0 0 2 6 9 11 13 13 11 8 6 7 9 9 7 7 7 8 9 9 6 3 1 3 9 15 16 12 10 10 6 1 0 0 0 0 0 0 0 0 0 0 0
0 0 1 3 6 7 9 10 9 7 6 6 7 7 5 4 5 7 7 6 5 3 1 1 5 11 14 11 10 8 4 0 0 0 0 0 0 0 0 0 0 0 0
0 0 0 1 3 4 5 5 6 6 5 4 4 3 2 2 4 6 6 5 4 3 1 0 2 6 9 9 8 6 2 0 0 0 0 0 0 0 0 0 0 0 0
0 0 0 1 2 3 3 2 4 5 4 2 1 1 0 0 2 3 3 3 3 2 1 0 1 2 4 4 5 4 1 0 0 0 0 0 0 0 0 0 0 0 0
0 0 1 2 4 4 3 2 3 3 2 1 0 0 0 0 0 1 2 3 2 1 0 0 0 1 1 1 3 3 1 0 0 0 0 0 0 0 0 0 0 0 0
0 0 1 3 4 4 2 1 2 3 1 0 0 0 0 0 0 1 3 3 1 0 0 0 0 0 0 1 2 2 1 0 0 0 0 0 0 0 0 0 0 0 0
0 0 1 2 2 2 1 1 2 2 1 0 0 0 0 1 0 1 4 3 1 0 0 0 0 0 0 0 1 1 0 0 0 0 0 0 0 0 0 0 0 0 0
0 0 0 0 0 0 0 0 1 2 1 0 0 0 0 0 0 1 3 2 1 0 0 0 0 0 0 0 0 0 0 0 0 0 0 0 0 0 0 0 0 0 0
0 0 0 0 0 0 0 0 0 1 1 0 0 0 0 0 0 1 2 1 0 0 0 0 0 0 0 0 0 0 0 0 0 0 0 0 0 0 0 0 0 0 0
0 0 0 0 0 0 0 0 0 0 0 0 0 0 0 0 0 1 1 1 0 0 0 0 0 0 0 0 0 0 0 0 0 0 0 0 0 0 0 0 0 0 0
0 0 0 0 0 0 0 0 0 0 0 0 0 0 0 0 0 0 0 0 0 0 0 0 0 0 0 0 0 0 0 0 0 0 0 0 0 0 0 0 0 0 0
0 0 0 0 0 0 0 0 0 0 0 0 0 0 0 0 0 0 0 0 0 0 0 0 0 0 0 0 0 0 0 0 0 0 0 0 0 0 0 0 0 0 0
0 0 0 0 0 0 0 0 0 0 0 0 0 0 0 0 0 0 0 0 0 0 0 0 0 0 0 0 0 0 0 0 0 0 0 0 0 0 0 0 0 0 0
0 0 0 0 0 0 0 0 0 0 0 0 0 0 0 0 0 0 0 0 0 0 0 0 0 0 0 0 0 0 0 0 0 0 0 0 0 0 0 0 0 0 0
0 0 0 0 0 0 0 0 0 0 0 0 0 0 0 0 0 0 0 0 0 0 0 0 0 0 0 0 0 0 0 0 0 0 0 0 0 0 0 0 0 0 0
0 0 0 0 0 0 0 0 0 0 0 0 0 0 0 0 0 0 0 0 0 0 0 0 0 0 0 0 0 0 0 0 0 0 0 0 0 0 0 0 0 0 0
0 0 0 0 0 0 0 0 0 0 0 0 0 0 0 0 0 0 0 0 0 0 0 0 0 0 0 0 0 0 0 0 0 0 0 0 0 0 0 0 0 0 0
0 0 0 0 0 0 0 0 0 0 0 0 0 0 0 0 0 0 0 0 0 0 0 0 0 0 0 0 0 0 0 0 0 0 0 0 0 0 0 0 0 0 0
1 1 1 0 0 0 0 0 0 0 0 0 0 0 0 0 0 0 0 0 0 0 0 0 0 0 0 0 0 0 0 0 0 0 0 0 0 0 0 0 0 0 0

GEFSSE_con_prob3kmehi_174.txt.gz
EHI
2 4 11 14 16 17 15 14 16 15 13 12 9 5 2 1 1 2 3 5 6 4 1 0 0 0 1 2 3 3 4 3 1 0 2 2 1 0 0 0 0 0 0
2 3 9 13 14 15 14 13 15 16 14 13 11 7 4 3 3 2 2 4 4 2 0 0 0 0 0 1 2 2 3 3 1 1 2 3 1 0 0 0 0 0 0
2 2 5 10 13 14 13 11 12 12 12 12 12 10 6 5 4 2 1 2 2 1 0 0 0 0 0 0 0 1 2 3 3 3 2 1 0 0 0 0 0 0 0
2 2 3 8 12 14 14 11 9 9 9 8 8 7 6 5 4 3 2 2 2 2 1 1 0 0 0 0 0 1 2 3 4 4 2 0 0 0 0 0 0 0 0
3 3 4 7 11 14 14 12 10 9 8 6 5 4 4 4 4 3 2 2 3 4 4 2 2 1 1 0 0 0 1 2 3 2 1 0 0 0 0 0 0 0 0
3 3 4 6 9 11 11 11 10 10 8 6 5 3 2 2 3 3 2 2 3 5 5 4 3 2 1 0 0 0 1 1 1 1 0 0 0 0 0 0 0 0 0
3 3 3 5 6 7 9 9 9 8 8 8 6 4 1 1 2 3 1 1 2 4 5 4 3 2 1 0 0 1 1 1 0 0 0 0 0 0 0 0 0 0 0
3 2 2 3 3 4 7 9 8 7 7 8 8 6 3 1 1 2 2 1 2 3 4 4 4 3 1 0 0 1 1 1 0 0 0 0 0 0 0 0 0 0 0
2 2 2 2 1 2 6 8 7 6 6 7 7 6 3 1 0 1 2 2 1 2 3 4 5 3 1 0 0 0 0 0 0 0 0 0 0 0 0 0 0 0 0
1 1 2 1 0 2 6 7 5 4 4 4 4 4 3 1 0 1 1 1 0 0 1 3 5 3 1 0 0 0 0 0 0 0 0 0 0 0 0 0 0 0 0
0 1 2 1 1 3 6 6 3 2 2 1 2 2 1 0 0 0 0 0 0 0 0 2 4 3 1 0 0 0 0 0 0 0 0 0 0 0 0 0 0 0 0
0 1 2 2 3 4 6 4 1 1 1 0 1 1 1 0 0 0 0 0 0 0 0 1 2 2 1 0 0 0 0 0 0 0 0 0 1 0 0 0 0 0 1
0 0 1 2 3 5 5 3 1 0 0 0 0 0 0 0 0 0 0 0 0 0 0 0 1 1 0 0 0 0 0 0 0 0 0 0 0 0 0 0 0 0 1
0 0 0 1 2 4 4 2 0 0 0 0 0 0 0 0 0 0 0 0 0 0 0 0 0 0 0 0 0 0 0 0 0 0 0 0 0 0 0 0 0 0 1
0 0 0 0 1 1 1 1 0 0 0 0 0 0 0 0 0 0 0 0 0 0 0 0 0 0 0 0 0 0 0 0 0 0 0 0 0 0 0 0 0 0 1
0 0 0 0 0 0 0 0 0 0 0 0 0 0 0 0 0 0 0 0 0 0 0 0 0 0 0 0 0 0 0 0 0 0 0 0 0 0 0 0 0 1 2
0 0 0 0 0 0 0 0 0 0 1 0 0 0 0 0 0 0 0 0 0 0 0 0 0 0 0 0 0 0 0 0 0 0 0 0 0 0 0 0 0 1 2
0 0 0 0 0 0 0 0 0 0 0 0 0 0 0 0 0 0 0 0 0 0 0 0 0 0 0 0 0 0 0 0 0 0 0 0 0 0 0 0 0 1 2
0 0 0 0 0 0 0 0 0 0 0 0 0 0 0 0 0 0 0 0 0 0 0 0 0 0 0 0 0 0 0 0 0 0 0 0 0 0 0 0 0 0 1
0 0 0 0 0 0 0 0 0 0 0 0 0 0 0 0 0 0 0 0 0 0 0 0 0 0 0 0 0 0 0 0 0 0 0 0 0 0 0 0 0 0 0
0 0 0 0 0 0 0 0 0 0 0 0 0 0 0 0 0 0 0 0 0 0 0 0 0 0 0 0 0 0 0 0 0 0 0 0 0 0 0 0 0 0 0
0 0 0 0 0 0 0 0 0 0 0 0 0 1 1 0 0 0 0 0 0 0 0 0 0 0 0 0 0 0 0 0 0 0 0 0 0 0 0 0 0 0 0
0 0 0 0 0 0 0 0 0 0 0 0 0 1 1 0 0 0 0 0 0 0 0 0 0 0 0 0 0 0 0 0 0 0 0 0 0 0 0 0 0 0 0
0 0 0 0 0 0 0 0 0 0 0 0 0 1 1 0 0 0 0 0 0 0 0 0 0 0 0 0 0 0 0 0 0 0 0 0 0 0 0 0 0 0 0
0 0 0 0 0 0 0 0 0 0 0 0 0 0 0 0 0 0 0 0 0 0 0 0 0 0 0 0 0 0 0 0 0 0 0 0 0 0 0 0 0 0 0
0 0 0 0 0 0 0 0 0 0 0 0 0 0 0 0 0 0 0 0 0 0 0 0 0 0 0 0 0 0 0 0 0 0 0 0 0 0 0 0 0 0 0

GEFSSE_con_prob3kmehi_180.txt.gz
EHI
0 1 4 8 12 16 17 16 13 14 18 19 17 15 12 10 10 11 10 9 10 9 7 5 2 0 0 0 1 2 2 1 0 0 0 0 0 1 2 1 0 0 0
0 1 4 8 12 15 17 16 13 12 14 15 14 12 11 10 9 10 10 10 11 10 8 5 2 1 0 0 1 2 2 1 0 0 0 0 0 1 2 1 0 0 0
0 1 3 8 12 14 15 14 12 10 11 11 10 9 9 8 7 7 7 8 9 10 8 5 2 2 1 0 1 1 1 0 0 0 0 0 0 1 2 1 0 0 0
0 0 2 7 12 16 15 12 11 10 9 9 7 6 6 5 4 4 3 3 5 7 7 4 3 2 1 0 0 0 0 0 0 0 0 0 0 1 1 0 0 0 0
0 0 2 6 12 17 16 12 10 9 7 5 5 4 3 3 2 2 2 2 2 4 5 3 2 2 1 1 0 0 0 0 0 0 0 0 0 0 0 0 0 0 0
0 0 2 7 11 15 16 12 11 9 6 3 3 3 3 3 2 2 2 3 3 3 3 2 1 2 2 1 0 0 0 0 0 0 0 0 0 0 0 0 0 0 0
0 1 4 8 11 13 14 12 10 7 4 2 2 3 3 4 4 2 1 2 3 3 3 2 1 1 2 1 0 0 0 0 0 0 0 0 0 0 0 0 0 0 0
0 1 4 7 10 12 13 11 8 4 2 2 2 2 3 3 3 1 0 0 2 3 2 1 0 1 1 0 0 0 0 0 0 0 0 0 0 0 0 0 0 0 0
0 1 3 5 7 9 9 7 4 2 2 3 3 2 2 2 2 1 0 0 1 1 1 1 1 0 0 1 1 0 0 0 0 0 0 0 0 0 0 0 0 0 0
0 1 2 2 3 4 4 3 2 1 1 2 3 2 1 0 1 1 0 0 0 0 0 1 2 1 0 1 2 1 0 0 0 0 0 0 0 0 0 0 0 0 0
0 0 0 1 1 2 2 3 2 1 0 1 1 1 1 0 0 0 0 0 0 0 0 0 1 0 0 1 1 1 0 0 0 0 0 0 0 0 0 0 0 0 0
0 0 0 0 1 2 3 4 3 1 0 0 0 0 0 0 0 0 0 0 0 0 0 0 0 0 0 0 0 0 0 0 0 0 0 0 0 0 0 0 1 1 1
0 0 0 0 1 3 4 4 3 1 0 0 0 0 0 0 0 0 0 0 0 0 0 0 0 0 0 0 0 0 0 0 0 0 0 0 0 0 0 0 1 1 1
0 0 0 0 1 2 3 4 3 2 0 0 0 0 0 0 0 0 0 0 0 0 0 0 0 0 0 0 0 0 0 0 0 0 0 0 0 0 0 0 0 0 0
0 0 0 0 1 2 3 3 3 1 0 0 0 0 0 0 0 0 0 0 0 0 0 0 0 0 0 0 0 0 0 0 0 0 0 0 0 0 0 0 0 0 0
0 0 0 0 1 1 3 3 2 1 0 0 0 0 0 0 0 0 0 0 0 0 0 0 0 0 0 0 0 0 0 0 0 0 0 0 0 0 0 0 0 0 1
0 0 0 1 1 1 2 3 2 1 0 0 0 0 0 0 0 0 0 0 0 0 0 0 0 0 0 0 0 0 0 0 0 0 0 0 0 0 0 0 0 0 1
0 0 1 2 2 1 1 1 1 1 0 0 0 0 0 0 0 0 0 0 0 0 0 0 0 0 0 0 0 0 0 0 0 0 0 0 0 0 0 0 0 0 1
0 0 1 2 2 1 0 0 0 0 0 0 0 0 0 0 0 0 0 0 0 0 0 0 0 0 0 0 0 0 0 0 0 0 0 0 0 0 0 0 0 0 0
0 0 1 2 2 1 0 0 0 0 0 0 0 0 0 0 0 0 0 0 0 0 0 0 0 0 0 0 0 0 0 0 0 0 0 0 0 0 0 0 0 0 0
0 0 1 2 1 0 0 0 0 0 0 0 0 0 0 0 0 0 0 0 0 0 0 0 0 0 0 0 0 0 0 0 0 0 0 0 0 0 0 0 0 0 0
0 0 1 2 1 0 0 0 0 0 0 0 0 0 0 0 0 0 0 0 0 0 0 0 0 0 0 0 0 0 0 0 0 0 0 0 0 0 0 0 0 0 0
0 0 1 1 1 0 0 0 0 0 0 0 0 0 0 0 0 0 0 0 0 0 0 0 0 0 0 0 0 0 0 0 0 0 0 0 0 0 0 0 0 0 0
0 0 0 1 1 1 0 0 0 0 0 0 0 0 0 0 0 0 0 0 0 0 0 0 0 0 0 0 0 0 0 0 0 0 0 0 0 0 0 0 0 0 0
0 0 0 1 2 1 0 0 0 0 0 0 0 0 0 0 0 0 0 0 0 0 0 0 0 0 0 0 0 0 0 0 0 0 0 0 0 0 0 0 0 0 0
0 0 0 1 2 2 1 0 0 0 0 0 0 0 0 0 0 0 0 0 0 0 0 0 0 0 0 0 0 0 0 0 0 0 0 0 0 0 0 0 0 0 0

GEFSSE_con_prob3kmehi_186.txt.gz
EHI
0 1 5 9 11 10 11 14 16 16 16 17 18 17 14 12 10 8 6 5 3 2 4 5 5 5 5 5 3 1 0 0 1 1 1 0 0 1 1 1 0 0 0
0 1 5 9 11 12 12 14 14 14 14 14 13 10 9 8 8 7 5 3 2 2 4 4 5 4 4 3 2 0 0 1 1 1 0 0 0 0 0 0 0 0 0
0 1 4 8 12 15 15 14 12 12 12 10 7 4 4 4 4 3 3 2 2 2 2 3 4 3 2 1 0 1 1 2 2 1 0 0 0 0 0 0 0 0 0
0 1 3 7 11 15 15 14 12 12 11 8 4 2 2 1 1 2 2 2 3 3 2 3 4 2 1 0 0 1 2 3 2 1 0 0 0 0 0 0 0 0 0
0 0 2 6 9 10 10 10 11 11 11 8 5 2 1 0 1 2 2 2 2 2 3 5 5 3 1 0 0 1 1 2 2 1 0 0 0 0 0 0 0 0 0
0 0 2 4 7 8 6 6 8 11 11 8 6 4 2 1 1 1 1 1 1 1 2 5 5 4 2 1 0 0 0 1 1 0 0 0 0 0 0 0 0 0 0
0 0 1 2 5 7 6 5 6 9 10 8 5 4 3 2 2 1 1 0 0 0 2 3 4 3 3 2 1 0 0 0 0 0 0 0 0 0 0 0 0 0 0
0 0 0 1 4 6 5 4 4 6 8 7 5 3 3 2 1 1 0 0 0 0 1 2 3 3 3 3 2 1 0 0 0 0 0 0 0 0 0 0 0 0 0
0 0 0 1 2 4 3 2 2 2 3 4 3 2 1 1 0 0 0 0 0 0 0 1 1 2 3 3 3 2 0 0 0 0 0 0 0 0 0 0 0 0 0
0 0 0 0 1 1 1 1 1 0 1 1 1 1 0 0 0 0 0 0 0 0 0 0 0 1 1 2 2 1 0 0 0 0 0 0 0 0 0 0 0 0 0
0 0 0 0 0 0 0 0 0 0 0 0 0 0 0 0 0 0 0 0 0 0 0 0 0 0 0 1 2 1 0 0 0 0 0 0 0 0 0 0 0 0 0
0 0 0 0 0 0 1 1 1 0 0 0 0 0 0 0 0 0 0 0 0 0 0 0 0 0 0 0 1 1 0 0 0 0 0 0 0 0 0 0 0 0 0
0 0 0 0 0 1 3 4 2 0 0 0 0 0 0 0 0 0 0 0 0 0 0 0 0 0 0 0 0 0 0 0 0 0 0 0 0 0 0 0 0 0 0
0 0 0 0 0 1 3 4 2 0 0 0 0 0 0 0 0 0 0 0 0 0 0 0 0 0 0 0 0 0 0 0 0 0 0 0 0 0 0 0 0 0 0
0 0 0 0 0 0 2 2 1 0 0 0 0 0 0 0 0 0 0 0 0 0 0 0 0 0 0 0 0 0 0 0 0 0 0 0 0 0 0 0 0 0 0
0 0 0 0 0 0 0 0 0 0 0 0 0 0 0 0 0 0 0 0 0 0 0 0 0 0 0 0 0 0 0 0 0 0 0 0 0 0 0 0 0 0 0
0 0 0 0 0 0 0 0 0 1 1 1 0 0 0 0 0 0 0 0 0 0 0 0 0 0 0 0 0 0 0 0 0 0 0 0 0 0 0 0 0 0 0
0 0 0 0 0 0 0 0 0 1 1 1 0 0 0 0 0 0 0 0 0 0 0 0 0 0 0 0 0 0 0 0 0 0 0 0 0 0 0 0 0 0 0
0 0 0 0 0 0 0 0 0 0 0 0 0 0 0 0 0 0 0 0 0 0 0 0 0 0 0 0 0 0 0 0 0 0 0 0 0 0 0 0 0 0 0
0 0 0 0 0 0 0 0 0 0 0 0 0 0 0 0 0 0 0 0 0 0 0 0 0 0 0 0 0 0 0 0 0 0 0 0 0 0 0 0 0 0 0
0 0 0 0 0 0 0 0 0 0 0 0 0 0 0 0 0 0 0 0 0 0 0 0 0 0 0 0 0 0 0 0 0 0 0 0 0 0 0 0 0 0 0
0 0 0 0 0 0 0 0 0 0 0 0 0 0 0 0 0 0 0 0 0 0 0 0 0 0 0 0 0 0 0 0 0 0 0 0 0 0 0 0 0 0 0
0 0 0 0 0 0 0 0 0 0 0 0 0 0 0 0 0 0 0 0 0 0 0 0 0 0 0 0 0 0 0 0 0 0 0 0 0 0 0 0 0 0 0
0 0 0 0 0 0 0 0 0 0 0 0 0 0 0 0 0 0 0 0 0 0 0 0 0 0 0 0 0 0 0 0 0 0 0 0 0 0 0 0 0 0 0
0 0 0 0 0 0 0 0 0 1 1 0 0 0 0 0 0 0 0 0 0 0 0 0 0 0 0 0 0 0 0 0 0 0 0 0 0 0 0 0 0 0 0
0 0 0 0 0 0 0 0 1 2 2 1 0 0 0 0 0 0 0 0 0 0 0 0 0 0 0 0 0 0 0 0 0 0 0 0 0 0 0 0 0 0 0